User: anonymous   Login
Location: Unspecified
(0.0000°N, 0.0000°E)
Time: 18:26:06
(UTC+00:00)
Language:

DIAMOND BLUE - Orbit

View from above orbital plane
View from above orbital plane
View from above satellite
View from above satellite

Ground track
Ground track

The orbit data is extracted from the following two-line orbital elements,

1 42786U 17036X   18049.15467349  .00001137  00000-0  54005-4 0  9995
2 42786  97.4177 110.7740 0013586 130.0467 230.1963 15.21190856 36403
Epoch (UTC): 18 February 2018 03:42:43
Eccentricity: 0.0013586
inclination: 97.4177°
perigee height: 493 km
apogee height: 511 km
right ascension of ascending node: 110.7740°
argument of perigee: 130.0467°
revolutions per day: 15.21190856
mean anomaly at epoch: 230.1963°
orbit number at epoch: 3640

The dashed part of the orbit path shows where the satellite is in the earth's shadow,  

DLR